Flag Weather past 2 weeks in Prenzlau, Brandenburg, Germany

Now
34 °F

Fog.


Feels Like: 26 °F
Forecast: 28 / 35 °F
Wind: 10 mph from East

Location: Szczecin Airport

Current Time: Nov 27, 2014 at 5:12:36 PM

Latest Report: Nov 27, 2014 at 4:30 PM


Visibility: 3 mi

Pressure: 30.09 "Hg

Humidity: 93%

Dew point: 32 °F

Location of PrenzlauLocation

Historic Weather in Prenzlau — Graph

°F

Prenzlau temperature yesterday

Maximum temperature yesterday: 43 °F (at 10:30 AM)
Minimum temperature yesterday: 34 °F (at 11:30 PM)
Average temperature yesterday: 39 °F

Past Weeks' High & Low Weather Summary

 TemperatureHumidityPressure
High55 °F (Nov 12, 4:00 PM)100% (Nov 13, 3:00 AM)30.36 "Hg (Nov 13, 3:00 AM)
Low34 °F (Nov 26, 11:30 PM)71% (Nov 22, 2:30 PM)29.68 "Hg (Nov 16, 12:30 PM)
Average42 °F93%30.10 "Hg
* Reported Nov 12 4:00 PM — Nov 27 4:00 PM, Prenzlau, Weather by CustomWeather, © 2014

Note: Actual official high and low records may vary slightly from our data, if they occured in-between our weather recording intervals... More about our weather records

Advertising

Prenzlau weather history for previous 24 hours

 ConditionsComfort  
Time TempWeatherWind HumidityBarometerVisibility
4:00 PM
Nov 27
36 °FFog.10 mph87%30.09 "Hg3 mi
3:30 PM37 °FClear.10 mph81%30.09 "Hg5 mi
3:00 PM39 °FSunny.12 mph75%30.09 "Hg10 mi
2:30 PM39 °FPassing clouds.9 mph81%30.09 "HgN/A
2:00 PM39 °FPassing clouds.9 mph81%30.09 "HgN/A
1:30 PM39 °FPassing clouds.10 mph81%30.09 "Hg5 mi
1:00 PM41 °FPassing clouds.10 mph76%30.09 "Hg5 mi
12:30 PM41 °FPassing clouds.12 mph76%30.12 "Hg5 mi
12:00 PM39 °FClear.10 mph81%30.12 "Hg5 mi
11:30 AM39 °FClear.8 mph81%30.12 "Hg5 mi
11:00 AM39 °FPassing clouds.12 mph81%30.12 "Hg4 mi
10:30 AM37 °FPassing clouds.9 mph87%30.12 "Hg4 mi
10:00 AM37 °FScattered clouds.9 mph87%30.12 "Hg4 mi
9:30 AM36 °FBroken clouds.9 mph93%30.15 "Hg4 mi
9:00 AM36 °FBroken clouds.9 mph93%30.15 "Hg4 mi
8:30 AM36 °FBroken clouds.8 mph93%30.15 "Hg4 mi
8:00 AM36 °FBroken clouds.8 mph93%30.15 "Hg4 mi
7:30 AM36 °FPartly cloudy.7 mph93%30.15 "Hg4 mi
7:00 AM36 °FPartly cloudy.10 mph93%30.15 "Hg4 mi
6:30 AM36 °FFog.7 mph100%30.12 "Hg3 mi
6:00 AM36 °FFog.5 mph100%30.15 "Hg2 mi
5:30 AM37 °FFog.6 mph93%30.15 "Hg2 mi
5:00 AM37 °FFog.9 mph93%30.15 "Hg3 mi
4:30 AM37 °FFog.6 mph93%30.15 "Hg3 mi
4:00 AM37 °FFog.7 mph93%30.15 "Hg3 mi
3:30 AM37 °FFog.6 mph93%30.15 "Hg2 mi
3:00 AM37 °FFog.6 mph93%30.15 "Hg2 mi
2:30 AM37 °FFog.7 mph93%30.15 "Hg2 mi
2:00 AM37 °FFog.10 mph93%30.15 "Hg2 mi
1:00 AM37 °FFog.8 mph93%30.18 "Hg2 mi
12:30 AM36 °FFog.7 mph100%30.18 "Hg3 mi
12:00 AM34 °FPassing clouds.6 mph100%30.18 "Hg4 mi
11:30 PM
Nov 26
34 °FClear.6 mph100%30.18 "Hg4 mi
11:00 PM36 °FClear.6 mph93%30.21 "Hg10 mi
10:30 PM36 °FClear.6 mph93%30.21 "Hg10 mi
10:00 PM36 °FClear.6 mph93%30.21 "Hg10 mi
9:30 PM36 °FClear.5 mph93%30.21 "Hg10 mi
9:00 PM36 °FClear.3 mph93%30.21 "Hg10 mi
8:30 PM36 °FClear.3 mph93%30.21 "Hg10 mi
8:00 PM37 °FPassing clouds.5 mph87%30.21 "HgN/A
7:30 PM39 °FPartly cloudy.6 mph87%30.24 "HgN/A
7:00 PM39 °FPassing clouds.7 mph87%30.24 "HgN/A
6:30 PM39 °FPassing clouds.7 mph87%30.24 "HgN/A
6:00 PM39 °FPassing clouds.8 mph87%30.24 "HgN/A
5:30 PM39 °FPassing clouds.6 mph87%30.24 "HgN/A
5:00 PM39 °FPassing clouds.5 mph87%30.24 "HgN/A
Weather by CustomWeather, © 2014

See weather overviewHow to use our weather pages